GFSGL_prec_cthk_159.txt.gz
RH
46 49 46 55 63 61 50 62 69 69 70 70 65 71 62 56 59 57 58 57 59 54 52 48 46 44 46 41 36 40 40 40 38 38 47 49 47 47 45 47 45 41 31
38 43 48 49 68 66 57 65 68 75 77 70 66 67 55 53 56 56 58 56 56 53 53 48 49 46 40 37 45 43 39 37 46 48 53 59 65 65 63 55 50 46 39
34 40 45 48 58 79 66 75 57 62 65 64 61 58 53 54 58 60 55 57 55 60 57 55 50 40 37 41 45 41 39 46 56 64 66 82 90 83 80 72 65 55 48
32 35 40 45 49 61 75 77 61 57 60 58 60 53 52 57 58 58 55 53 66 63 64 54 45 33 41 47 48 42 49 52 63 80 90 91 96 92 91 85 75 70 58
34 36 40 44 49 57 65 64 61 58 59 59 54 50 52 58 55 54 57 64 66 66 64 53 38 36 47 49 48 45 52 55 75 91 95 93 95 92 90 93 92 80 68
34 37 40 42 45 50 58 57 55 56 56 52 51 52 54 59 53 54 61 65 63 63 61 45 31 34 43 44 43 45 55 74 89 97 97 90 91 97 91 87 94 93 85
32 34 35 36 40 45 52 54 53 55 54 50 53 55 59 55 55 59 63 65 62 58 49 34 30 37 45 44 39 48 55 85 97 98 94 87 86 90 96 92 96 95 92
35 35 36 38 42 46 49 50 53 54 51 50 52 55 53 53 56 62 62 58 58 57 49 40 35 38 42 45 44 52 64 90 97 94 91 94 91 86 93 97 92 94 92
37 37 38 42 44 43 44 49 53 53 50 50 53 50 50 56 60 64 63 58 57 59 57 45 35 35 44 49 47 54 72 86 95 95 97 99 95 92 92 96 94 94 93
35 35 37 42 46 50 53 55 53 50 50 56 54 47 49 57 61 65 56 56 61 64 62 39 33 38 47 47 51 55 73 84 88 92 97 99 95 95 97 96 96 94 93
38 41 42 41 46 45 45 50 50 50 51 59 49 49 51 60 65 58 56 60 67 68 52 33 34 37 43 46 53 55 72 83 83 96 97 98 94 95 97 95 91 87 94
45 46 42 40 42 47 48 48 50 53 54 50 51 50 59 67 59 57 61 69 75 66 47 32 31 36 41 47 53 55 56 80 82 88 96 97 98 98 97 93 94 91 95
53 47 35 43 45 46 46 55 58 55 51 50 50 69 70 60 60 63 72 77 73 59 38 28 30 35 38 43 50 45 47 70 75 81 92 98 93 93 95 96 99 99 96
51 42 39 46 46 47 56 63 59 50 48 58 62 76 66 57 62 71 76 77 68 53 31 30 29 33 31 36 38 42 34 45 59 74 81 92 97 97 96 99 99 98 98
45 46 46 44 45 63 64 66 64 52 57 68 80 71 63 63 69 75 75 71 60 43 32 31 30 34 32 27 31 29 36 36 40 49 59 71 82 93 94 93 95 96 97
40 46 45 43 49 56 61 65 67 62 69 84 73 65 65 71 75 73 69 67 58 49 31 33 35 36 32 25 21 20 23 35 32 27 29 36 51 60 74 80 81 88 95
33 30 38 43 53 55 52 61 63 72 77 73 65 68 73 76 72 72 71 63 59 47 31 34 36 33 26 26 18 16 19 21 31 34 33 25 18 24 31 40 40 52 63
29 29 33 38 38 43 46 57 63 74 72 65 68 71 77 73 74 73 69 63 55 39 33 32 32 33 27 18 18 15 15 15 15 21 22 26 31 28 20 20 26 25 23
29 33 39 39 43 49 56 59 65 66 68 71 73 76 76 78 78 73 71 69 48 38 32 27 26 35 33 24 19 18 18 18 16 15 14 14 15 18 19 22 20 22 21
32 38 41 43 44 48 55 60 64 65 72 76 76 78 82 82 76 76 83 67 52 41 35 32 29 25 27 28 26 21 20 18 18 17 16 16 16 15 17 18 16 15 16
39 42 42 46 53 55 57 59 62 68 76 77 82 87 85 83 78 73 70 63 51 44 40 40 37 27 23 23 21 21 22 20 20 20 20 18 17 18 18 20 20 20 18
42 42 44 50 53 57 62 65 68 72 76 78 81 85 88 86 77 74 69 58 53 49 44 42 36 30 27 24 22 21 20 20 20 20 20 19 19 18 19 20 21 21 18
46 47 50 52 54 57 61 66 70 73 77 79 84 90 91 85 81 80 65 57 53 46 40 33 28 29 29 27 25 23 22 22 21 19 19 21 23 21 25 24 22 22 22
52 54 56 59 62 64 64 69 72 75 79 83 86 94 90 81 78 71 64 56 47 39 32 28 27 26 25 24 24 23 22 21 21 21 21 22 23 23 24 24 24 23 23
58 58 59 63 66 69 70 76 79 83 85 86 91 89 88 82 77 66 51 41 33 31 29 29 29 27 25 24 24 24 24 23 23 23 23 23 23 22 22 26 26 26 25
61 63 65 66 69 74 76 79 82 84 85 87 87 85 83 77 63 50 39 31 28 26 29 33 35 35 34 33 31 30 29 29 28 27 26 25 25 25 28 28 27 28 28

GFSGL_prec_cthk_162.txt.gz
RH
42 38 36 40 45 49 56 62 58 60 63 50 52 56 59 57 57 59 64 58 55 52 48 49 51 55 55 48 50 44 47 46 41 36 43 43 53 58 58 60 56 51 47
41 38 40 44 51 51 52 57 66 75 82 67 57 58 58 58 56 62 59 57 54 48 50 54 61 59 53 45 45 43 45 46 45 40 41 49 61 69 71 73 71 66 59
42 44 45 46 47 49 52 56 63 74 76 75 67 61 58 58 59 60 58 55 49 52 58 60 60 58 46 40 38 41 46 45 47 48 49 64 79 86 86 94 94 93 77
41 41 42 44 45 47 51 52 58 69 79 77 72 62 58 60 58 60 56 50 53 59 60 60 57 48 36 32 39 44 46 50 52 54 75 84 94 96 95 97 93 94 86
34 36 41 45 46 47 51 55 59 72 78 74 64 57 62 59 59 57 54 56 60 59 59 57 50 41 30 32 42 45 52 54 53 65 93 95 94 94 92 93 94 92 91
33 34 39 43 44 46 46 50 62 70 63 60 56 59 64 56 54 50 48 58 61 61 63 52 50 47 44 39 41 48 57 56 59 75 94 93 91 90 90 91 92 97 86
36 38 39 40 42 44 46 50 54 55 55 50 53 58 55 51 53 46 53 59 62 64 58 50 53 51 39 38 41 46 55 60 64 84 95 97 94 99 91 91 91 94 95
41 41 40 42 44 46 48 51 52 50 47 48 51 49 49 56 47 48 53 56 60 61 51 54 58 49 41 39 42 47 55 60 67 78 95 98 99 98 91 88 93 98 92
36 37 39 41 43 45 49 52 50 51 49 48 49 47 48 55 44 51 53 58 65 54 59 61 56 40 36 37 38 48 54 58 67 77 94 99 99 98 97 98 98 98 91
37 38 40 40 39 40 44 50 59 51 50 49 48 50 52 53 48 54 59 68 53 61 68 68 53 36 33 37 41 53 54 55 71 79 92 97 97 98 97 96 99 96 95
37 37 39 43 44 49 52 50 52 54 53 50 53 56 55 52 54 59 68 58 58 70 74 64 45 30 32 36 41 51 49 51 71 74 89 97 98 98 95 93 90 90 92
42 47 48 52 57 63 61 39 51 58 57 56 61 60 57 54 60 70 65 57 69 72 67 50 33 27 31 35 40 44 46 45 61 60 81 97 98 98 96 98 96 95 93
47 50 57 65 62 69 59 50 57 56 60 70 68 66 66 71 69 66 58 65 71 68 58 33 28 28 30 35 35 33 32 43 44 52 70 87 97 95 98 97 97 98 96
53 59 64 62 67 66 55 59 52 52 66 70 66 65 72 81 74 62 63 67 67 64 52 37 31 30 34 33 34 28 23 38 36 31 46 71 81 92 95 98 99 98 99
48 54 60 60 65 65 66 55 57 61 68 72 69 65 72 88 66 61 68 66 64 59 49 41 31 32 36 32 31 26 23 27 36 31 32 33 50 68 74 85 94 96 94
54 62 71 78 54 55 55 48 60 60 64 64 60 67 80 75 63 66 68 67 62 57 49 38 31 30 33 31 27 20 18 22 21 37 36 33 33 35 40 41 62 72 83
60 65 51 44 51 48 49 59 51 55 62 60 61 69 68 69 68 68 66 66 61 58 43 34 32 30 31 31 26 22 20 17 21 21 23 30 36 36 38 39 32 38 43
54 39 32 36 40 47 46 44 50 53 58 62 69 70 68 68 69 67 65 67 69 57 40 35 32 27 29 35 31 26 23 22 20 20 18 20 22 23 24 23 27 30 33
39 41 42 43 41 38 37 42 53 59 58 62 69 70 69 71 69 68 68 69 74 56 44 34 32 30 27 32 34 31 28 23 23 22 21 20 20 22 23 23 20 20 21
39 37 38 40 39 44 49 50 56 64 69 66 71 72 73 73 74 73 71 67 63 54 47 38 36 36 31 25 26 27 26 28 26 24 24 25 22 20 23 24 24 22 20
38 33 34 42 50 53 57 58 62 71 75 72 73 75 77 80 80 76 71 68 59 56 49 45 40 38 35 31 25 26 25 25 24 25 25 24 23 22 22 22 24 21 21
33 39 41 46 50 55 55 63 70 72 78 75 76 77 80 82 79 80 74 71 59 53 49 42 35 31 31 31 29 27 27 26 26 27 27 25 24 25 26 24 23 23 21
42 43 46 49 53 53 54 64 70 71 76 76 75 79 83 84 88 84 78 67 61 52 43 35 30 29 28 27 26 25 26 25 25 25 26 26 26 25 29 28 26 27 25
46 49 54 57 57 60 68 75 73 73 75 79 79 81 85 87 87 87 76 63 52 42 33 31 30 28 26 26 23 21 21 21 21 22 27 28 26 26 28 28 27 24 27
56 58 61 61 65 69 74 75 73 75 81 85 87 85 87 82 87 82 68 50 38 32 30 31 32 31 29 28 26 25 25 25 25 24 28 28 28 28 27 29 30 30 29
61 61 60 61 66 70 74 78 81 79 80 84 85 86 85 87 83 72 55 41 35 30 29 30 33 34 36 36 35 34 32 30 28 26 27 30 30 29 32 31 31 33 32

GFSGL_prec_cthk_165.txt.gz
RH
34 39 37 38 37 37 41 47 52 55 64 72 76 71 67 64 57 55 56 52 53 52 55 50 50 54 58 55 52 50 47 43 43 39 38 42 44 55 62 58 59 64 62
37 37 38 37 40 45 47 51 56 58 68 70 74 62 78 74 65 57 55 52 49 55 50 49 54 54 52 49 43 39 36 41 45 46 50 42 45 61 75 73 72 71 70
37 39 40 42 42 46 50 54 58 57 64 69 74 84 84 75 65 56 54 52 53 51 51 55 56 53 55 48 38 37 40 43 48 50 47 44 49 80 92 92 90 85 81
41 40 40 45 48 51 53 54 55 59 60 66 73 80 80 76 63 55 54 49 50 54 57 61 58 61 51 45 42 34 41 44 52 51 48 47 60 85 97 96 91 90 86
37 37 38 44 47 48 48 50 52 53 55 62 68 72 70 61 56 54 52 48 54 54 58 58 63 53 47 53 47 39 42 50 53 57 55 52 73 88 96 93 88 90 87
38 36 37 40 42 44 47 48 49 52 56 64 66 59 55 50 51 53 45 50 53 53 59 64 59 51 55 52 44 38 42 50 59 61 58 59 80 96 98 99 91 91 93
37 40 42 43 43 45 47 49 52 56 62 61 57 61 62 53 52 47 41 50 51 51 60 66 51 58 56 46 34 34 38 51 68 63 60 69 88 98 99 98 94 91 94
40 44 43 42 40 42 45 47 50 53 55 60 61 54 49 49 48 42 44 50 46 55 68 56 55 63 56 36 30 34 42 52 57 60 68 76 97 99 99 98 99 97 96
41 41 37 36 38 39 41 43 47 53 60 59 54 57 55 50 45 44 48 46 52 70 61 54 59 64 46 30 30 34 39 46 49 63 69 86 98 99 99 99 99 99 96
41 35 36 35 34 38 42 46 53 58 63 66 59 54 50 49 51 49 48 50 65 67 58 59 59 54 36 27 32 35 40 40 45 56 66 89 98 99 99 96 94 94 91
40 42 42 40 40 44 53 57 62 67 63 64 64 53 52 56 56 53 56 59 65 59 59 62 57 41 27 26 32 35 34 33 39 51 61 80 95 99 99 96 92 95 95
46 43 43 47 53 53 58 65 67 75 76 68 64 53 56 66 66 65 64 67 64 58 62 57 49 30 27 27 34 31 28 28 42 40 48 69 88 96 99 99 97 97 94
42 45 53 49 60 61 59 65 69 76 82 81 68 68 70 72 68 67 69 69 57 58 57 50 43 31 29 30 36 33 28 24 31 40 34 48 65 74 92 96 98 99 96
43 43 50 48 54 59 62 67 73 80 76 61 62 74 72 71 67 64 70 66 58 60 53 53 46 38 32 31 36 33 24 26 26 39 43 48 42 47 66 77 93 98 97
44 44 48 55 62 68 72 78 71 63 59 55 81 72 72 71 62 61 68 59 61 56 53 49 43 37 34 32 34 29 23 20 21 28 30 31 39 44 37 46 60 83 91
51 53 60 60 66 72 75 79 55 55 63 55 91 72 72 64 62 67 62 62 60 57 56 47 41 35 32 31 35 30 26 21 21 21 22 25 27 32 38 40 40 42 64
52 57 59 65 66 71 74 58 51 54 62 64 58 56 61 60 67 65 63 64 60 59 60 46 40 35 32 28 33 33 32 22 22 21 21 22 23 24 25 27 28 33 35
60 59 58 72 67 50 44 49 50 63 56 58 55 58 61 66 66 63 66 65 62 62 63 48 41 32 31 29 29 33 33 26 23 23 22 23 24 23 24 23 22 29 32
53 53 56 52 48 44 42 48 52 53 54 53 54 63 66 65 64 67 68 68 64 61 54 48 39 36 35 35 31 30 33 29 28 27 26 29 28 28 25 24 23 23 22
34 36 36 39 39 42 45 49 62 63 61 56 63 67 65 65 68 71 75 72 68 58 52 55 49 43 38 37 35 30 29 26 25 24 25 25 27 25 22 26 25 24 24
46 32 33 42 51 53 54 53 56 67 66 65 66 67 67 70 72 73 74 73 70 64 52 50 45 38 31 31 32 33 34 28 26 26 27 32 29 29 28 27 25 22 22
43 48 38 45 54 50 60 60 61 65 67 68 68 65 70 73 72 75 78 78 72 59 54 48 39 31 29 28 27 27 28 28 30 30 29 31 27 30 28 27 26 26 21
42 44 49 47 54 56 55 61 60 64 71 75 69 69 71 74 74 80 87 78 66 56 48 39 31 31 31 29 26 23 22 20 24 26 27 28 30 27 28 28 27 27 27
47 49 51 52 56 59 57 61 66 74 76 71 71 72 76 77 79 83 83 74 62 48 37 32 33 33 32 29 27 23 22 22 21 24 26 27 27 28 30 30 29 29 29
48 52 55 59 61 60 60 70 72 75 74 74 76 77 82 83 84 82 79 64 50 38 33 31 31 33 31 31 31 29 27 26 25 24 26 30 30 30 30 31 31 32 33
58 59 60 57 59 61 68 75 79 82 81 80 79 81 81 81 83 83 71 55 42 34 29 28 30 33 34 34 34 33 31 28 27 27 30 33 34 29 34 35 35 34 36

GFSGL_prec_cthk_168.txt.gz
RH
32 33 34 34 34 35 36 40 42 47 52 57 62 62 66 71 76 72 65 66 64 59 49 43 49 49 51 53 52 51 45 38 38 36 36 38 43 44 41 40 38 48 65
35 34 33 35 34 37 38 39 45 50 55 56 59 65 67 70 75 77 70 67 59 55 50 47 51 50 51 53 54 46 42 39 42 41 39 43 46 46 44 42 48 68 75
34 34 36 36 37 37 40 43 46 52 58 59 62 65 67 76 77 89 69 66 59 55 46 50 54 50 52 59 46 45 46 45 41 40 43 49 55 46 41 52 80 89 91
33 33 35 37 38 37 42 47 50 55 59 63 64 66 70 75 77 74 74 65 59 51 51 53 54 51 58 52 48 50 43 35 35 40 50 57 50 49 56 77 88 94 91
35 35 36 40 40 40 43 48 55 57 59 61 64 63 61 64 70 66 62 56 51 50 52 57 53 55 58 49 54 45 33 33 39 44 59 56 53 56 79 92 96 95 92
38 38 40 42 43 45 47 50 55 57 53 56 54 55 61 69 67 60 62 61 51 50 52 55 55 64 51 53 56 35 27 36 45 54 57 58 58 77 94 98 98 98 93
40 40 43 46 46 48 50 50 48 47 51 52 59 63 70 75 70 67 61 54 44 49 52 51 64 55 52 55 41 32 27 35 46 51 50 62 73 93 98 97 98 98 98
40 41 44 47 48 51 50 48 45 47 52 65 69 74 72 70 74 74 54 44 49 50 52 64 59 52 53 48 39 28 28 34 39 40 51 64 79 98 99 99 98 98 98
39 41 46 52 51 49 48 47 48 51 59 62 61 74 82 85 82 60 49 56 53 59 65 66 53 55 55 42 30 25 29 33 28 39 51 60 82 93 99 98 95 93 92
43 46 49 50 47 44 47 47 50 56 58 65 72 73 81 84 80 68 62 60 65 66 67 57 54 55 53 31 27 27 29 28 24 30 39 60 72 82 97 99 92 96 97
49 51 49 43 41 43 45 49 50 52 62 61 68 67 69 65 60 63 61 62 65 66 64 56 53 50 38 31 29 29 32 26 21 30 38 53 53 68 88 95 99 94 95
53 43 40 41 47 52 48 49 57 60 59 67 73 71 65 56 50 57 58 64 65 64 62 52 48 43 41 36 31 31 30 22 23 24 35 40 42 56 72 88 95 98 99
42 40 41 47 51 54 55 55 57 67 72 76 78 78 74 60 67 62 58 62 57 63 58 52 47 41 40 35 32 30 24 20 20 21 25 30 43 45 51 65 91 97 99
48 47 48 49 51 52 56 60 67 73 71 72 78 87 69 72 77 67 59 53 56 60 54 52 49 41 42 37 32 30 27 23 20 21 28 25 33 33 37 46 68 89 95
46 49 48 45 47 53 58 65 71 71 73 71 78 68 73 89 92 81 61 53 59 56 53 52 48 37 36 34 32 31 28 28 21 21 20 29 24 29 29 33 39 63 77
40 44 49 48 50 54 62 64 72 74 62 84 66 62 64 73 72 58 57 62 60 57 56 55 46 38 35 33 28 29 31 30 25 23 21 21 24 24 28 27 35 38 47
52 53 51 54 59 66 61 64 68 62 54 57 61 55 58 59 51 56 67 63 62 61 54 52 47 40 35 31 31 29 30 30 29 26 23 30 26 24 25 24 24 25 33
48 44 49 52 55 55 49 51 49 52 49 48 54 54 55 58 62 66 65 66 64 58 54 50 45 40 40 37 35 35 29 26 27 27 28 26 23 27 29 24 24 23 22
47 48 52 55 51 41 43 47 48 46 44 53 56 59 61 65 67 64 68 69 64 59 54 47 49 50 45 37 35 34 32 28 27 26 26 27 29 26 21 21 24 25 24
46 45 44 50 50 45 42 53 55 58 59 59 56 59 64 68 67 67 71 69 65 60 58 49 45 45 38 31 30 32 32 30 29 28 29 29 31 30 26 25 21 23 24
45 41 41 39 42 40 42 46 49 55 57 55 57 62 64 69 69 71 67 68 67 66 57 50 47 42 34 29 26 26 26 25 25 27 30 31 29 28 26 25 26 21 23
54 47 39 46 49 48 41 51 54 53 54 57 59 63 69 69 69 68 67 71 73 68 53 47 42 38 32 31 28 24 23 21 23 24 26 27 25 26 27 25 26 24 22
44 53 46 45 51 53 55 61 62 60 62 61 64 70 70 71 70 70 70 75 73 59 49 40 36 34 34 31 25 21 20 20 20 23 25 26 26 28 27 28 26 27 25
45 43 46 46 47 49 53 59 58 62 76 71 71 71 73 74 73 72 77 76 67 54 39 32 32 33 31 28 26 25 24 23 22 24 26 26 27 27 29 30 29 29 30
49 45 49 50 58 56 59 54 56 68 71 74 72 73 74 76 78 80 78 74 55 45 36 33 32 29 28 29 30 29 28 25 24 26 28 29 29 32 33 32 33 32 34
52 52 54 60 59 57 63 64 64 72 78 78 75 74 74 76 78 78 79 67 48 36 31 28 27 28 29 30 31 31 30 28 28 31 32 32 32 32 34 36 36 36 35

GFSGL_prec_cthk_171.txt.gz
RH
30 31 32 33 34 33 31 35 38 39 40 43 47 53 57 63 69 74 69 75 74 66 78 62 50 44 47 47 48 50 53 42 41 36 31 31 35 39 42 42 36 35 38
28 29 29 31 33 35 35 35 37 39 43 47 54 58 64 64 72 74 72 83 76 72 70 66 51 50 49 51 48 55 49 44 40 33 29 34 41 45 43 41 44 50 61
29 29 28 28 31 34 37 36 38 40 47 51 59 64 68 70 77 76 75 81 73 76 72 63 52 52 52 49 56 54 48 50 36 31 34 42 45 41 42 51 65 76 83
32 29 29 30 32 35 41 40 42 45 52 59 63 69 71 71 72 73 77 73 84 85 70 57 53 55 53 57 54 52 50 34 28 32 38 40 41 49 62 82 88 94 96
34 32 32 34 37 41 43 46 50 54 61 71 70 62 67 70 69 77 71 77 82 87 65 52 58 57 60 61 55 52 40 29 27 34 38 41 52 60 78 96 98 96 96
34 33 34 37 40 46 52 57 60 64 69 65 60 63 64 66 64 68 81 87 89 89 64 59 68 63 68 57 57 49 35 27 31 38 33 41 52 71 82 97 98 98 95
32 34 36 41 46 51 57 60 63 62 59 54 58 62 65 64 70 69 74 80 78 74 61 66 65 70 60 57 55 37 31 27 32 32 33 42 54 66 76 93 96 95 96
35 37 40 44 50 54 58 59 59 58 55 58 60 57 57 64 67 76 72 66 64 55 57 65 66 62 57 56 53 34 27 28 28 28 35 39 51 60 71 88 95 92 92
37 41 43 46 50 53 55 57 57 48 48 57 55 58 66 64 70 79 72 64 51 58 60 59 58 57 53 51 42 31 28 28 23 28 29 34 42 58 71 86 93 89 90
36 40 43 46 50 53 54 51 44 52 61 56 61 64 70 73 76 71 69 70 61 58 56 55 55 55 51 43 36 31 30 27 24 25 22 33 41 57 60 91 95 95 95
33 40 45 49 52 53 47 45 51 60 57 60 63 73 74 73 68 71 78 61 59 60 53 51 55 49 44 38 36 33 30 25 26 21 21 27 36 38 51 81 94 97 98
40 45 49 54 51 45 44 52 57 53 54 64 69 73 74 77 79 81 77 66 66 61 51 51 50 46 42 35 36 33 30 25 26 20 19 23 30 35 39 65 83 98 97
48 50 54 49 40 41 47 51 53 52 57 64 67 68 73 77 86 78 76 71 74 59 53 52 50 48 39 34 34 32 30 26 27 19 19 27 22 34 39 52 67 92 96
54 55 45 38 40 43 45 48 51 55 60 65 66 73 72 62 75 83 78 77 68 50 52 52 52 50 40 35 35 32 29 27 27 21 23 27 21 21 30 38 51 68 87
49 43 41 41 42 46 50 54 59 63 65 65 65 70 65 65 73 72 71 65 51 55 55 54 52 48 39 34 32 29 28 28 26 24 24 31 35 20 21 27 29 38 62
38 40 41 43 47 52 55 55 59 65 68 63 54 56 61 57 58 62 62 56 59 56 56 54 49 45 39 36 34 32 30 26 26 24 27 32 28 31 25 20 21 26 38
36 41 47 52 55 56 56 58 63 60 51 43 51 56 50 58 60 61 60 63 61 59 58 49 46 42 43 42 40 37 32 29 26 25 26 24 24 24 23 29 24 21 23
48 51 50 49 48 51 55 60 56 46 47 52 54 51 59 57 59 63 64 63 60 59 54 46 42 44 45 45 40 34 32 30 28 27 26 26 26 27 23 25 25 24 21
49 46 44 44 44 45 42 47 50 50 47 45 53 58 59 61 62 64 64 61 58 58 55 53 46 44 44 40 33 30 30 29 29 29 28 30 31 30 25 24 25 24 23
38 39 41 40 40 44 50 50 46 46 47 53 53 53 56 61 61 63 64 63 60 57 57 53 47 43 42 37 30 28 26 24 23 24 25 28 29 27 26 21 24 24 24
38 38 42 43 43 46 45 45 49 45 46 50 48 53 60 60 62 64 67 63 62 59 56 52 46 42 39 34 30 27 25 21 20 22 23 24 27 26 25 23 23 24 25
43 44 42 44 46 51 51 46 51 47 48 51 49 56 59 64 64 66 63 64 64 61 55 49 43 37 35 31 28 24 21 18 20 22 23 23 24 25 25 24 23 25 26
45 48 44 45 44 49 48 47 54 53 54 51 53 59 65 66 65 65 66 67 69 59 50 43 35 33 32 30 28 24 22 21 21 23 23 23 24 26 26 25 26 27 28
47 51 51 50 45 44 47 50 52 54 51 56 64 62 66 70 70 68 70 71 72 53 41 37 34 33 33 31 27 25 24 23 23 25 26 25 26 27 30 30 31 32 31
45 44 47 48 49 50 54 57 60 59 56 61 66 71 71 71 70 71 73 75 69 49 36 32 32 30 27 27 27 26 24 25 26 28 29 28 29 31 33 34 33 32 32
50 49 50 50 52 55 57 56 56 58 64 69 68 70 69 70 70 71 75 75 61 39 30 26 24 24 25 26 27 26 26 27 29 31 31 31 33 34 36 36 35 32 32